EW1233 Weather Reports


time (UTC)temp
C
wind
direction
speed
KPH
gust
KPH
rain 1hr
cm
rain 24hr
cm
rain mn
cm
humidity
%
barometer
mb
20260508141608 12 224 4.8 9.7 0.00 0.00 0.00 53 1006.8
20260508140036 11 221 4.8 11.3 0.00 0.00 0.00 57 1006.8
20260508134609 10 219 0.0 8.0 0.00 0.00 0.00 59 1006.8
20260508133026 8 218 3.2 6.4 0.00 0.00 0.00 62 1007.0
20260508131604 7 218 4.8 9.7 0.00 0.00 0.00 63 1007.1
20260508130028 6 214 0.0 11.3 0.00 0.00 0.00 64 1007.1
20260508124603 5 192 1.6 4.8 0.00 0.00 0.00 74 1006.9
20260508123023 3 192 0.0 0.0 0.00 0.00 0.00 79 1006.8
20260508121611 3 192 0.0 0.0 0.00 0.00 0.00 77 1006.9
20260508120012 2 192 1.6 6.4 0.00 0.00 0.00 76 1007.0
20260508114606 2 192 0.0 3.2 0.00 0.00 0.00 76 1006.9
20260508113007 1 192 0.0 4.8 0.00 0.00 0.00 74 1006.8
20260508111538 2 192 0.0 4.8 0.00 0.00 0.00 72 1006.9
20260508110107 2 192 0.0 4.8 0.00 0.00 0.00 70 1007.0
20260508104511 3 360 0.0 4.8 0.00 0.00 0.00 67 1006.9
20260508103022 4 192 0.0 0.0 0.00 0.00 0.00 65 1007.0
20260508101557 5 192 0.0 0.0 0.00 0.00 0.00 65 1007.0
20260508100016 5 192 0.0 0.0 0.00 0.00 0.00 64 1007.2
20260508094558 5 192 0.0 0.0 0.00 0.00 0.00 64 1007.2
20260508093027 5 192 0.0 9.7 0.00 0.00 0.00 65 1007.1
20260508091607 6 194 8.0 12.9 0.00 0.00 0.00 67 1007.0
20260508090038 5 294 0.0 0.0 0.00 0.00 0.00 70 1007.7
20260508084533 5 294 0.0 0.0 0.00 0.00 0.00 71 1007.5
20260508083112 5 294 0.0 0.0 0.00 0.00 0.00 71 1007.5
20260508081530 5 294 0.0 0.0 0.00 0.00 0.00 71 1007.6
20260508080108 5 294 0.0 0.0 0.00 0.00 0.00 70 1007.7
20260508074521 4 294 0.0 0.0 0.00 0.00 0.00 70 1008.1
20260508073106 3 294 0.0 0.0 0.00 0.00 0.00 70 1008.1
20260508071503 3 294 0.0 4.8 0.00 0.00 0.00 73 1008.0
20260508070027 2 295 0.0 6.4 0.00 0.00 0.00 72 1008.1
20260508064608 2 304 0.0 0.0 0.00 0.00 0.00 72 1008.4
20260508063016 2 304 0.0 0.0 0.00 0.00 0.00 70 1008.3
20260508061602 2 304 0.0 0.0 0.00 0.00 0.00 71 1008.4
20260508060019 1 304 0.0 0.0 0.00 0.00 0.00 72 1008.4
20260508054617 2 304 0.0 0.0 0.00 0.00 0.00 70 1008.4
20260508053119 3 304 0.0 0.0 0.00 0.00 0.00 67 1008.7
20260508051609 3 304 0.0 0.0 0.00 0.00 0.00 67 1008.6
20260508050053 4 304 0.0 0.0 0.00 0.00 0.00 64 1008.6
20260508044547 5 304 0.0 3.2 0.00 0.00 0.00 64 1008.6
20260508043053 3 288 1.6 8.0 0.00 0.00 0.00 69 1008.7
20260508041547 3 265 0.0 0.0 0.00 0.00 0.00 67 1008.7
20260508040055 3 265 0.0 0.0 0.00 0.00 0.00 66 1008.7
20260508034546 4 265 0.0 0.0 0.00 0.00 0.00 64 1008.8
20260508033044 5 265 0.0 0.0 0.00 0.00 0.00 63 1008.7
20260508031552 5 265 0.0 0.0 0.00 0.00 0.00 61 1008.6
20260508030046 6 265 0.0 0.0 0.00 0.00 0.00 61 1008.5
20260508024544 6 265 0.0 0.0 0.00 0.00 0.00 59 1008.5
20260508023043 8 360 0.0 0.0 0.00 0.00 0.00 56 1008.4
20260508021605 9 265 0.0 0.0 0.00 0.00 0.00 54 1008.1
20260508020023 10 265 0.0 0.0 0.00 0.00 0.00 50 1008.0
20260508014601 11 265 0.0 0.0 0.00 0.00 0.00 46 1008.0
20260508013029 12 265 0.0 0.0 0.00 0.00 0.00 40 1008.0
20260508011616 13 265 0.0 3.2 0.00 0.00 0.00 38 1008.1
20260508010032 14 265 0.0 3.2 0.00 0.00 0.00 33 1008.1
20260508004538 15 265 0.0 3.2 0.00 0.00 0.00 30 1008.1
20260508003015 15 263 0.0 11.3 0.00 0.00 0.00 28 1008.1
20260508001553 15 304 4.8 12.9 0.00 0.00 0.00 28 1008.2
20260508000010 16 269 0.0 16.1 0.00 0.00 0.00 27 1008.2
20260507234550 16 309 4.8 14.5 0.00 0.00 0.00 27 1008.3
20260507233008 16 313 8.0 14.5 0.00 0.00 0.00 27 1008.5
20260507231545 16 309 4.8 17.7 0.00 0.00 0.00 27 1008.5
20260507230002 17 296 8.0 20.9 0.00 0.00 0.00 27 1008.6
20260507224535 17 261 8.0 14.5 0.00 0.00 0.00 25 1008.5
20260507223030 17 258 6.4 17.7 0.00 0.00 0.00 24 1008.7
20260507221610 17 301 9.7 19.3 0.00 0.00 0.00 24 1008.8
20260507220032 17 298 4.8 20.9 0.00 0.00 0.00 25 1009.0
20260507214612 17 260 3.2 19.3 0.00 0.00 0.00 24 1009.2
20260507213042 17 233 8.0 16.1 0.00 0.00 0.00 26 1009.3
20260507211503 17 329 8.0 20.9 0.00 0.00 0.00 26 1009.2
20260507210034 17 242 1.6 24.1 0.00 0.00 0.00 23 1009.3
20260507204613 17 222 8.0 19.3 0.00 0.00 0.00 26 1009.4
20260507203037 16 315 12.9 25.7 0.00 0.00 0.00 28 1009.6
20260507201507 16 5 9.7 22.5 0.00 0.00 0.00 27 1009.8
20260507200045 16 318 6.4 22.5 0.00 0.00 0.00 27 1009.9
20260507194506 16 319 8.0 19.3 0.00 0.00 0.00 27 1010.1
20260507193102 15 254 0.0 17.7 0.00 0.00 0.00 30 1010.1
20260507191552 15 221 11.3 19.3 0.00 0.00 0.00 28 1010.3
20260507190121 15 246 8.0 17.7 0.00 0.00 0.00 30 1010.3
20260507184509 15 327 3.2 12.9 0.00 0.00 0.00 32 1010.4
20260507183047 15 294 6.4 17.7 0.00 0.00 0.00 30 1010.4
20260507181515 14 299 11.3 19.3 0.00 0.00 0.00 32 1010.5
20260507180044 14 325 1.6 12.9 0.00 0.00 0.00 28 1010.7
20260507174551 14 342 4.8 19.3 0.00 0.00 0.00 30 1010.9
20260507173016 14 316 8.0 14.5 0.00 0.00 0.00 30 1011.0
20260507171600 13 336 4.8 20.9 0.00 0.00 0.00 35 1011.3
20260507170105 13 241 4.8 14.5 0.00 0.00 0.00 33 1011.4
20260507164530 13 355 1.6 11.3 0.00 0.00 0.00 32 1011.6
20260507163047 12 10 0.0 9.7 0.00 0.00 0.00 33 1011.7
20260507161511 12 288 0.0 4.8 0.00 0.00 0.00 36 1011.9
20260507160042 12 236 0.0 9.7 0.00 0.00 0.00 39 1012.1
20260507154603 11 210 0.0 4.8 0.00 0.00 0.00 44 1012.1
20260507153027 11 209 0.0 8.0 0.00 0.00 0.00 46 1012.1
20260507151603 10 208 1.6 11.3 0.00 0.00 0.00 50 1012.1
20260507150017 10 200 4.8 11.3 0.00 0.00 0.00 49 1012.1
20260507144558 9 198 3.2 9.7 0.00 0.00 0.00 55 1012.1
20260507143032 8 192 0.0 9.7 0.00 0.00 0.00 58 1012.0